TimePST,TemperatureF,Dew PointF,Humidity,Sea Level PressureIn,VisibilityMPH,Wind Direction,Wind SpeedMPH,Gust SpeedMPH,PrecipitationIn,Events,Conditions,WindDirDegrees,DateUTC
12:10 AM,30.2,30.2,100,29.79,0.2,South,10.4,-,0.01,Fog-Snow,Light Snow,180,2012-12-12 08:10:00
12:31 AM,30.2,30.2,100,29.79,0.2,South,13.8,-,0.02,Fog-Rain,Light Freezing Rain,170,2012-12-12 08:31:00
12:52 AM,30.9,30.9,100,29.74,0.2,South,10.4,-,0.02,Fog-Rain,Light Freezing Rain,180,2012-12-12 08:52:00
1:01 AM,30.2,30.2,100,29.78,0.2,South,11.5,-,0.01,Fog-Snow,Light Snow,170,2012-12-12 09:01:00
1:18 AM,30.2,30.2,100,29.78,0.5,South,10.4,-,0.02,Fog-Snow,Light Snow,170,2012-12-12 09:18:00
1:52 AM,30.9,30.9,100,29.73,0.2,SSE,10.4,-,0.04,Fog-Rain,Light Freezing Rain,160,2012-12-12 09:52:00
2:17 AM,32.0,30.2,93,29.78,0.2,South,9.2,-,0.00,Fog-Rain,Light Freezing Rain,180,2012-12-12 10:17:00
2:37 AM,32.0,32.0,100,29.76,0.2,SSE,8.1,-,0.01,Fog-Snow,Snow,160,2012-12-12 10:37:00
2:48 AM,32.0,32.0,100,29.76,0.5,South,6.9,-,0.03,Fog-Snow,Snow,180,2012-12-12 10:48:00
2:52 AM,32.0,32.0,100,29.72,0.8,South,6.9,-,0.03,Snow,Light Snow,190,2012-12-12 10:52:00
3:15 AM,32.0,30.2,93,29.76,0.2,South,6.9,-,0.01,Fog,Fog,170,2012-12-12 11:15:00
3:36 AM,32.0,32.0,100,29.75,0.2,South,8.1,-,0.01,Fog,Fog,170,2012-12-12 11:36:00
3:49 AM,32.0,32.0,100,29.75,0.5,SSW,6.9,-,0.01,Fog-Snow,Light Snow,200,2012-12-12 11:49:00
3:52 AM,32.0,32.0,100,29.72,0.8,South,13.8,21.9,0.01,Snow,Light Snow,190,2012-12-12 11:52:00
4:00 AM,32.0,32.0,100,29.75,1.2,South,8.1,21.9,0.00,,Overcast,190,2012-12-12 12:00:00
4:11 AM,32.0,32.0,100,29.75,0.5,South,10.4,17.3,0.00,Fog,Fog,180,2012-12-12 12:11:00
4:36 AM,32.0,32.0,100,29.74,0.2,South,9.2,-,0.01,Fog-Snow,Light Snow,170,2012-12-12 12:36:00
4:52 AM,32.0,32.0,100,29.72,0.2,South,10.4,-,0.01,Fog,Fog,180,2012-12-12 12:52:00
5:40 AM,30.2,30.2,100,29.74,0.5,SSW,8.1,19.6,N/A,Fog,Light Freezing Fog,200,2012-12-12 13:40:00
5:52 AM,30.9,30.9,100,29.73,1.0,South,8.1,-,N/A,,Overcast,190,2012-12-12 13:52:00
6:05 AM,30.2,30.2,100,29.74,1.5,SSW,10.4,20.7,N/A,,Overcast,200,2012-12-12 14:05:00
6:10 AM,30.2,30.2,100,29.74,0.8,South,9.2,21.9,N/A,,Overcast,180,2012-12-12 14:10:00
6:20 AM,30.2,30.2,100,29.75,0.2,South,11.5,19.6,N/A,Fog,Light Freezing Fog,170,2012-12-12 14:20:00
6:32 AM,30.2,30.2,100,29.74,0.5,South,13.8,20.7,0.00,Fog-Snow,Light Snow,170,2012-12-12 14:32:00
6:45 AM,30.2,30.2,100,29.74,0.2,South,11.5,-,0.00,Fog-Snow,Light Snow,170,2012-12-12 14:45:00
6:52 AM,30.9,30.9,100,29.72,0.2,South,11.5,-,0.00,Fog-Snow,Light Snow,180,2012-12-12 14:52:00
7:08 AM,30.2,30.2,100,29.74,0.5,SSW,9.2,-,0.03,Fog-Snow,Snow,200,2012-12-12 15:08:00
7:49 AM,30.2,30.2,100,29.76,0.2,South,10.4,19.6,0.08,Fog-Snow,Light Snow,190,2012-12-12 15:49:00
7:52 AM,30.0,28.9,96,29.75,0.5,SSW,9.2,19.6,0.08,Fog-Snow,Light Snow,200,2012-12-12 15:52:00
8:08 AM,30.2,30.2,100,29.76,0.2,South,11.5,-,0.00,Fog-Snow,Light Snow,180,2012-12-12 16:08:00
8:41 AM,30.2,28.4,93,29.77,0.5,South,8.1,-,0.02,Fog-Snow,Light Snow,170,2012-12-12 16:41:00
8:50 AM,30.2,30.2,100,29.77,0.2,South,8.1,-,0.02,Fog-Snow,Light Snow,170,2012-12-12 16:50:00
8:52 AM,30.0,30.0,100,29.77,0.2,South,6.9,-,0.02,Fog-Snow,Snow,170,2012-12-12 16:52:00
9:08 AM,30.2,30.2,100,29.77,0.5,South,6.9,-,0.01,Fog-Snow,Snow,170,2012-12-12 17:08:00
9:27 AM,30.2,28.4,93,29.77,1.0,Variable,6.9,18.4,0.02,Snow,Light Snow,0,2012-12-12 17:27:00
9:41 AM,30.2,28.4,93,29.78,1.5,South,10.4,17.3,0.02,Snow,Light Snow,190,2012-12-12 17:41:00
9:52 AM,30.0,28.9,96,29.80,1.5,SSW,10.4,-,0.02,Snow,Light Snow,210,2012-12-12 17:52:00
9:55 AM,30.2,28.4,93,29.78,0.8,SSW,10.4,-,0.00,Snow,Light Snow,210,2012-12-12 17:55:00
10:49 AM,28.4,28.4,100,29.78,0.2,South,11.5,-,0.03,Fog-Snow,Light Snow,170,2012-12-12 18:49:00
10:52 AM,28.9,28.9,100,29.81,0.2,South,11.5,-,0.03,Fog-Snow,Light Snow,170,2012-12-12 18:52:00
11:09 AM,28.4,28.4,100,29.78,0.5,South,9.2,-,0.00,Fog-Snow,Light Snow,190,2012-12-12 19:09:00
11:40 AM,28.4,28.4,100,29.77,1.5,SSW,6.9,-,0.01,,Overcast,200,2012-12-12 19:40:00
11:50 AM,28.4,28.4,100,29.77,0.8,South,8.1,-,0.01,Snow,Light Snow,190,2012-12-12 19:50:00
11:52 AM,28.9,28.9,100,29.82,0.8,South,9.2,-,0.01,Snow,Light Snow,190,2012-12-12 19:52:00
12:09 PM,28.4,28.4,100,29.77,0.2,South,15.0,21.9,0.01,Fog-Snow,Snow,170,2012-12-12 20:09:00
12:23 PM,28.4,28.4,100,29.76,0.8,South,8.1,18.4,0.01,Snow,Light Snow,190,2012-12-12 20:23:00
12:43 PM,28.4,28.4,100,29.76,0.2,SSW,5.8,-,0.03,Fog-Snow,Snow,210,2012-12-12 20:43:00
12:52 PM,28.0,27.0,96,29.81,0.2,South,6.9,-,0.05,Fog-Snow,Snow,190,2012-12-12 20:52:00
1:26 PM,28.4,26.6,93,29.76,0.5,South,13.8,-,0.02,Fog-Snow,Light Snow,180,2012-12-12 21:26:00
1:32 PM,28.4,26.6,93,29.76,1.5,South,11.5,-,0.02,Snow,Light Snow,180,2012-12-12 21:32:00
1:45 PM,28.4,26.6,93,29.76,3.0,South,8.1,-,0.02,,Overcast,190,2012-12-12 21:45:00
1:52 PM,28.0,27.0,96,29.80,8.0,SSW,8.1,-,0.02,,Overcast,200,2012-12-12 21:52:00
2:05 PM,28.4,26.6,93,29.75,1.8,Variable,4.6,-,0.00,Snow,Light Snow,0,2012-12-12 22:05:00
2:07 PM,28.4,26.6,93,29.76,1.0,South,5.8,-,0.00,Snow,Light Snow,190,2012-12-12 22:07:00
2:13 PM,28.4,26.6,93,29.76,0.2,South,9.2,-,0.01,Fog-Snow,Snow,170,2012-12-12 22:13:00
2:52 PM,28.0,27.0,96,29.81,0.8,South,8.1,-,0.01,,Mist,170,2012-12-12 22:52:00
3:10 PM,28.4,26.6,93,29.77,1.8,SSW,8.1,-,0.01,Snow,Light Snow,200,2012-12-12 23:10:00
3:25 PM,28.4,26.6,93,29.77,3.0,South,8.1,-,0.02,Snow,Light Snow,190,2012-12-12 23:25:00
3:34 PM,28.4,26.6,93,29.77,9.0,South,6.9,-,0.02,,Overcast,170,2012-12-12 23:34:00
3:45 PM,28.4,26.6,93,29.78,4.0,South,8.1,-,0.02,,Overcast,190,2012-12-12 23:45:00
3:52 PM,28.0,27.0,96,29.82,5.0,South,8.1,-,0.02,,Mostly Cloudy,180,2012-12-12 23:52:00
4:06 PM,28.4,26.6,93,29.77,1.8,South,5.8,-,N/A,,Mostly Cloudy,170,2012-12-13 00:06:00
4:17 PM,28.4,26.6,93,29.77,5.0,SSE,5.8,-,N/A,,Mostly Cloudy,160,2012-12-13 00:17:00
4:52 PM,28.0,26.1,92,29.82,10.0,SE,4.6,-,N/A,,Overcast,140,2012-12-13 00:52:00
5:45 PM,26.6,26.6,100,29.77,10.0,Calm,Calm,-,N/A,,Overcast,0,2012-12-13 01:45:00
5:52 PM,27.0,26.1,96,29.83,10.0,SE,3.5,-,N/A,,Overcast,140,2012-12-13 01:52:00
6:03 PM,26.6,26.6,100,29.77,10.0,SE,3.5,-,N/A,,Mostly Cloudy,140,2012-12-13 02:03:00
6:21 PM,26.6,26.6,100,29.78,10.0,SSE,4.6,-,N/A,,Mostly Cloudy,160,2012-12-13 02:21:00
6:38 PM,26.6,24.8,93,29.78,10.0,SE,3.5,-,N/A,,Mostly Cloudy,140,2012-12-13 02:38:00
6:52 PM,27.0,25.0,92,29.84,10.0,SE,3.5,-,N/A,,Scattered Clouds,140,2012-12-13 02:52:00
7:52 PM,27.0,25.0,92,29.84,10.0,SE,3.5,-,N/A,,Scattered Clouds,130,2012-12-13 03:52:00
8:16 PM,26.6,24.8,93,29.79,10.0,SSE,3.5,-,N/A,,Mostly Cloudy,160,2012-12-13 04:16:00
8:47 PM,26.6,24.8,93,29.79,10.0,Calm,Calm,-,N/A,,Overcast,0,2012-12-13 04:47:00
8:52 PM,27.0,25.0,92,29.85,10.0,Calm,Calm,-,N/A,,Overcast,0,2012-12-13 04:52:00
9:52 PM,27.0,25.0,92,29.85,10.0,Calm,Calm,-,N/A,,Mostly Cloudy,0,2012-12-13 05:52:00
9:59 PM,26.6,24.8,93,29.80,10.0,Calm,Calm,-,N/A,,Mostly Cloudy,0,2012-12-13 05:59:00
10:11 PM,26.6,24.8,93,29.80,10.0,Calm,Calm,-,N/A,,Mostly Cloudy,0,2012-12-13 06:11:00
10:31 PM,26.6,24.8,93,29.80,10.0,Calm,Calm,-,N/A,,Overcast,0,2012-12-13 06:31:00
10:52 PM,26.1,25.0,96,29.87,10.0,Calm,Calm,-,N/A,,Overcast,0,2012-12-13 06:52:00
11:02 PM,26.6,24.8,93,29.81,10.0,Calm,Calm,-,N/A,,Overcast,0,2012-12-13 07:02:00
11:36 PM,26.6,24.8,93,29.80,10.0,ESE,3.5,-,N/A,,Overcast,110,2012-12-13 07:36:00
11:52 PM,26.1,25.0,96,29.86,10.0,Calm,Calm,-,N/A,,Overcast,0,2012-12-13 07:52:00